| time (UTC) | temp F | wind direction | speed MPH | gust MPH | rain 1hr in | rain 24hr in | rain mn in | humidity % | barometer mb |
| 20260507060059 | 47 | 321 | 7.0 | 11.0 | 0.00 | 0.79 | 0.01 | 89 | 1005.3 |
| 20260507054552 | 47 | 305 | 8.0 | 13.0 | 0.00 | 0.79 | 0.01 | 89 | 1005.4 |
| 20260507053050 | 47 | 340 | 7.0 | 11.0 | 0.00 | 0.79 | 0.01 | 90 | 1005.2 |
| 20260507051542 | 47 | 323 | 6.0 | 10.0 | 0.01 | 0.79 | 0.01 | 91 | 1005.1 |
| 20260507050042 | 47 | 349 | 5.0 | 8.0 | 0.01 | 0.79 | 0.01 | 92 | 1005.2 |
| 20260507044537 | 48 | 291 | 6.0 | 11.0 | 0.02 | 0.79 | 0.01 | 91 | 1005.2 |
| 20260507043033 | 48 | 286 | 8.0 | 14.0 | 0.03 | 0.79 | 0.01 | 91 | 1005.6 |
| 20260507041532 | 49 | 312 | 6.0 | 15.0 | 0.02 | 0.78 | 0.00 | 91 | 1005.4 |
| 20260507040026 | 50 | 297 | 6.0 | 11.0 | 0.03 | 0.78 | 0.00 | 92 | 1005.7 |
| 20260507034539 | 50 | 314 | 6.0 | 12.0 | 0.03 | 0.77 | 0.77 | 92 | 1005.6 |
| 20260507033022 | 50 | 342 | 6.0 | 11.0 | 0.03 | 0.76 | 0.76 | 91 | 1005.3 |
| 20260507031520 | 50 | 349 | 7.0 | 15.0 | 0.06 | 0.76 | 0.76 | 91 | 1005.1 |
| 20260507030019 | 51 | 347 | 5.0 | 12.0 | 0.06 | 0.75 | 0.75 | 91 | 1005.0 |
| 20260507024528 | 52 | 303 | 5.0 | 10.0 | 0.05 | 0.75 | 0.74 | 91 | 1004.8 |
| 20260507023010 | 52 | 305 | 5.0 | 9.0 | 0.03 | 0.73 | 0.72 | 91 | 1004.8 |
| 20260507021508 | 53 | 281 | 5.0 | 7.0 | 0.00 | 0.70 | 0.69 | 92 | 1004.9 |
| 20260507020006 | 53 | 297 | 3.0 | 7.0 | 0.00 | 0.70 | 0.69 | 91 | 1004.6 |
| 20260507014507 | 54 | 288 | 4.0 | 6.0 | 0.00 | 0.70 | 0.69 | 91 | 1004.6 |
| 20260507013004 | 54 | 287 | 2.0 | 5.0 | 0.00 | 0.70 | 0.69 | 92 | 1004.7 |
| 20260507011504 | 54 | 292 | 3.0 | 5.0 | 0.04 | 0.70 | 0.69 | 92 | 1004.8 |
| 20260507010005 | 55 | 270 | 3.0 | 5.0 | 0.05 | 0.70 | 0.69 | 92 | 1004.6 |
| 20260507004502 | 55 | 17 | 0.0 | 5.0 | 0.05 | 0.70 | 0.69 | 92 | 1004.6 |
| 20260507003001 | 56 | 89 | 1.0 | 10.0 | 0.07 | 0.70 | 0.69 | 91 | 1004.6 |
| 20260507001501 | 57 | 85 | 2.0 | 10.0 | 0.05 | 0.66 | 0.65 | 93 | 1004.4 |
| 20260507000106 | 57 | 195 | 0.0 | 0.0 | 0.07 | 0.65 | 0.64 | 94 | 1003.6 |
| 20260506234621 | 57 | 174 | 0.0 | 0.0 | 0.08 | 0.65 | 0.64 | 94 | 1003.7 |
| 20260506233104 | 57 | 167 | 0.0 | 0.0 | 0.06 | 0.63 | 0.62 | 94 | 1003.7 |
| 20260506231557 | 57 | 165 | 0.0 | 0.0 | 0.05 | 0.61 | 0.60 | 94 | 1003.8 |
| 20260506230055 | 58 | 143 | 0.0 | 0.0 | 0.02 | 0.57 | 0.56 | 94 | 1003.9 |
| 20260506224556 | 58 | 197 | 0.0 | 2.0 | 0.02 | 0.63 | 0.56 | 94 | 1004.0 |
| 20260506223058 | 58 | 192 | 0.0 | 0.0 | 0.02 | 0.63 | 0.56 | 94 | 1004.2 |
| 20260506221551 | 58 | 140 | 0.0 | 0.0 | 0.02 | 0.62 | 0.55 | 94 | 1004.4 |
| 20260506220052 | 59 | 140 | 0.0 | 0.0 | 0.01 | 0.61 | 0.54 | 94 | 1004.6 |
| 20260506214550 | 58 | 140 | 0.0 | 0.0 | 0.01 | 0.61 | 0.54 | 94 | 1004.9 |
| 20260506213045 | 58 | 136 | 0.0 | 1.0 | 0.02 | 0.61 | 0.54 | 94 | 1005.0 |
| 20260506211551 | 58 | 155 | 0.0 | 0.0 | 0.02 | 0.60 | 0.53 | 94 | 1005.1 |
| 20260506210046 | 58 | 147 | 0.0 | 0.0 | 0.04 | 0.60 | 0.53 | 94 | 1005.0 |
| 20260506204545 | 58 | 142 | 0.0 | 0.0 | 0.06 | 0.60 | 0.53 | 94 | 1005.0 |
| 20260506203044 | 58 | 160 | 0.0 | 0.0 | 0.07 | 0.59 | 0.52 | 94 | 1005.0 |
| 20260506201543 | 58 | 160 | 0.0 | 0.0 | 0.08 | 0.57 | 0.51 | 94 | 1005.0 |
| 20260506200041 | 58 | 184 | 0.0 | 0.0 | 0.07 | 0.56 | 0.49 | 94 | 1005.1 |
| 20260506194540 | 58 | 162 | 0.0 | 1.0 | 0.15 | 0.54 | 0.47 | 94 | 1005.4 |
| 20260506193037 | 58 | 206 | 0.0 | 0.0 | 0.23 | 0.52 | 0.45 | 94 | 1005.5 |
| 20260506191535 | 58 | 205 | 0.0 | 0.0 | 0.28 | 0.50 | 0.43 | 94 | 1005.7 |
| 20260506190033 | 58 | 205 | 0.0 | 0.0 | 0.34 | 0.49 | 0.42 | 93 | 1006.0 |
| 20260506184532 | 58 | 127 | 0.0 | 0.0 | 0.28 | 0.39 | 0.32 | 93 | 1006.5 |
| 20260506183031 | 58 | 66 | 0.0 | 3.0 | 0.19 | 0.28 | 0.21 | 93 | 1006.7 |
| 20260506181530 | 58 | 197 | 0.0 | 0.0 | 0.13 | 0.21 | 0.14 | 92 | 1006.4 |
| 20260506180032 | 59 | 203 | 0.0 | 5.0 | 0.07 | 0.15 | 0.08 | 92 | 1006.4 |
| 20260506174528 | 59 | 218 | 1.0 | 3.0 | 0.03 | 0.11 | 0.04 | 91 | 1006.1 |
| 20260506173026 | 60 | 207 | 0.0 | 0.0 | 0.01 | 0.09 | 0.02 | 89 | 1006.2 |
| 20260506171523 | 60 | 206 | 0.0 | 2.0 | 0.01 | 0.08 | 0.01 | 88 | 1006.7 |
| 20260506170021 | 59 | 200 | 0.0 | 1.0 | 0.01 | 0.08 | 0.01 | 89 | 1006.8 |
| 20260506164518 | 59 | 197 | 0.0 | 1.0 | 0.01 | 0.08 | 0.01 | 87 | 1007.3 |
| 20260506163017 | 59 | 204 | 0.0 | 0.0 | 0.01 | 0.08 | 0.01 | 87 | 1007.7 |
| 20260506161516 | 60 | 179 | 0.0 | 0.0 | 0.00 | 0.07 | 0.00 | 84 | 1008.0 |
| 20260506160016 | 60 | 198 | 0.0 | 2.0 | 0.00 | 0.07 | 0.00 | 81 | 1008.2 |
| 20260506154515 | 60 | 231 | 0.0 | 0.0 | 0.00 | 0.07 | 0.00 | 79 | 1008.5 |
| 20260506153014 | 60 | 169 | 0.0 | 0.0 | 0.00 | 0.07 | 0.00 | 79 | 1008.6 |
| 20260506151514 | 60 | 115 | 0.0 | 1.0 | 0.00 | 0.07 | 0.00 | 79 | 1008.5 |
| 20260506150012 | 60 | 94 | 0.0 | 2.0 | 0.00 | 0.07 | 0.00 | 79 | 1008.5 |
| 20260506144524 | 59 | 148 | 0.0 | 5.0 | 0.00 | 0.07 | 0.00 | 80 | 1008.5 |
| 20260506143008 | 59 | 158 | 0.0 | 0.0 | 0.00 | 0.07 | 0.00 | 79 | 1008.5 |
| 20260506141508 | 59 | 217 | 0.0 | 3.0 | 0.00 | 0.07 | 0.00 | 80 | 1008.4 |
| 20260506140008 | 59 | 201 | 0.0 | 2.0 | 0.00 | 0.07 | 0.00 | 81 | 1008.7 |
| 20260506134507 | 59 | 195 | 0.0 | 0.0 | 0.00 | 0.07 | 0.00 | 81 | 1008.7 |
| 20260506133005 | 59 | 214 | 0.0 | 0.0 | 0.00 | 0.07 | 0.00 | 82 | 1008.8 |
| 20260506131502 | 58 | 217 | 0.0 | 0.0 | 0.00 | 0.07 | 0.00 | 83 | 1008.8 |
| 20260506130139 | 58 | 179 | 0.0 | 0.0 | 0.00 | 0.07 | 0.00 | 84 | 1008.8 |
| 20260506124558 | 57 | 174 | 0.0 | 0.0 | 0.00 | 0.07 | 0.00 | 84 | 1009.0 |
| 20260506123058 | 57 | 204 | 0.0 | 0.0 | 0.00 | 0.07 | 0.00 | 85 | 1009.2 |
| 20260506121559 | 57 | 195 | 0.0 | 1.0 | 0.00 | 0.07 | 0.00 | 86 | 1009.4 |
| 20260506120100 | 57 | 56 | 0.0 | 2.0 | 0.00 | 0.07 | 0.00 | 86 | 1009.6 |
| 20260506114555 | 56 | 221 | 0.0 | 0.0 | 0.00 | 0.07 | 0.00 | 86 | 1009.6 |
| 20260506113055 | 56 | 198 | 0.0 | 3.0 | 0.00 | 0.07 | 0.00 | 87 | 1009.4 |
| 20260506111553 | 56 | 203 | 0.0 | 0.0 | 0.00 | 0.07 | 0.00 | 89 | 1009.5 |
| 20260506110052 | 55 | 180 | 0.0 | 0.0 | 0.00 | 0.07 | 0.00 | 91 | 1009.3 |
| 20260506104559 | 54 | 180 | 0.0 | 0.0 | 0.00 | 0.07 | 0.00 | 93 | 1009.6 |
| 20260506103049 | 53 | 155 | 0.0 | 0.0 | 0.00 | 0.07 | 0.00 | 93 | 1009.6 |
| 20260506101549 | 53 | 155 | 0.0 | 0.0 | 0.00 | 0.07 | 0.00 | 92 | 1009.2 |
| 20260506100104 | 53 | 155 | 0.0 | 0.0 | 0.00 | 0.07 | 0.00 | 92 | 1009.3 |
| 20260506094552 | 53 | 155 | 0.0 | 0.0 | 0.00 | 0.07 | 0.00 | 92 | 1009.4 |
| 20260506093046 | 53 | 155 | 0.0 | 0.0 | 0.00 | 0.07 | 0.00 | 91 | 1009.4 |
| 20260506091543 | 54 | 155 | 0.0 | 0.0 | 0.00 | 0.07 | 0.00 | 90 | 1009.2 |
| 20260506090043 | 55 | 155 | 0.0 | 0.0 | 0.00 | 0.07 | 0.00 | 89 | 1009.0 |
| 20260506084542 | 56 | 303 | 1.0 | 3.0 | 0.00 | 0.07 | 0.00 | 89 | 1009.0 |
| 20260506083040 | 57 | 239 | 1.0 | 4.0 | 0.00 | 0.07 | 0.00 | 86 | 1008.9 |
| 20260506081548 | 57 | 285 | 2.0 | 4.0 | 0.00 | 0.07 | 0.00 | 87 | 1009.0 |
| 20260506073034 | 56 | 273 | 1.0 | 5.0 | 0.00 | 0.07 | 0.00 | 91 | 1008.9 |
| 20260506071531 | 56 | 252 | 0.0 | 2.0 | 0.00 | 0.07 | 0.00 | 92 | 1008.8 |
| 20260506061523 | 54 | 150 | 0.0 | 0.0 | 0.00 | 0.07 | 0.00 | 92 | 1008.1 |